Change the Weather History Date:

Sunday, November 17, 2013

  Actual Average Record
Temperature  
Mean Temperature 62 °F -  
Max Temperature 75 °F 53 °F 80 °F (1963)
Min Temperature 44 °F 33 °F 4 °F (1959)
Degree Days  
Heating Degree Days 4    
Growing Degree Days 12 (Base 50)    
Moisture  
Dew Point 43 °F    
Average Humidity 48    
Maximum Humidity 75    
Minimum Humidity 15    
Precipitation  
Precipitation 0.00 in - - ()
Sea Level Pressure  
Sea Level Pressure 29.59 in    
Wind  
Wind Speed 16 mph (WSW)    
Max Wind Speed 34 mph    
Max Gust Speed 50 mph    
Visibility 10 miles    
Events Rain , Thunderstorm    
Averages and records for this station are not official NWS values.
T = Trace of Precipitation, MM = Missing Value Source: NWS Daily Summary

Daily Weather History Graph

Daily Weather History Graph

Search for Another Location

Airport or City:

Trip Planner

Search our weather history database for the weather conditions in past years. The results will help you decide how hot, cold, wet, or windy it might be!

Date:

Astronomy

Nov. 17, 2013 Rise Set
Actual Time 6:53 AM CST 4:53 PM CST
Civil Twilight 6:24 AM CST 5:22 PM CST
Nautical Twilight 5:52 AM CST 5:54 PM CST
Astronomical Twilight 5:20 AM CST 6:26 PM CST
Moon 5:11 PM CST (11/17) 6:47 AM CST (11/17)
Length of Visible Light 10h 57m
Length of Day
10h 00m
Full, 100% of the Moon is Illuminated
Nov 17
Full
Nov 25
Last Quarter
Dec 2
New
Dec 9
First Quarter
Dec 17
Full

Hourly Weather History & Observations

Time (CST) Temp. Dew Point Humidity Pressure Visibility Wind Dir Wind Speed Gust Speed Precip Events Conditions
12:53 AM 68.0 °F 59.0 °F 73% 29.49 in 10.0 mi South 13.8 mph 23.0 mph N/A   Clear
1:53 AM 69.1 °F 60.1 °F 73% 29.47 in 10.0 mi South 17.3 mph 24.2 mph N/A   Mostly Cloudy
2:53 AM 69.1 °F 60.1 °F 73% 29.45 in 10.0 mi South 12.7 mph 21.9 mph N/A   Clear
3:53 AM 69.1 °F 61.0 °F 75% 29.44 in 10.0 mi South 17.3 mph 23.0 mph N/A   Clear
4:53 AM 69.1 °F 61.0 °F 75% 29.43 in 10.0 mi South 13.8 mph - N/A   Scattered Clouds
5:53 AM 69.1 °F 61.0 °F 75% 29.39 in 10.0 mi South 12.7 mph 25.3 mph N/A   Scattered Clouds
6:53 AM 69.1 °F 61.0 °F 75% 29.38 in 10.0 mi South 13.8 mph 21.9 mph N/A   Clear
7:53 AM 71.1 °F 61.0 °F 70% 29.39 in 10.0 mi South 15.0 mph 21.9 mph N/A   Mostly Cloudy
8:53 AM 73.0 °F 60.1 °F 64% 29.39 in 10.0 mi SSW 13.8 mph 21.9 mph N/A   Overcast
9:39 AM 73.4 °F 59.0 °F 61% 29.44 in 10.0 mi WSW 27.6 mph 35.7 mph 0.00 in Rain , Thunderstorm Light Thunderstorms and Rain
9:53 AM 73.9 °F 54.0 °F 50% 29.41 in 10.0 mi WSW 23.0 mph 38.0 mph 0.00 in   Mostly Cloudy
10:00 AM 73.4 °F 51.8 °F 47% 29.45 in 10.0 mi WSW 31.1 mph 42.6 mph N/A Thunderstorm Scattered Clouds
10:19 AM 75.2 °F 51.8 °F 44% 29.45 in 10.0 mi WSW 19.6 mph 38.0 mph N/A   Clear
10:53 AM 73.0 °F 46.9 °F 39% 29.46 in 10.0 mi West 34.5 mph 49.5 mph N/A   Partly Cloudy
11:53 AM 68.0 °F 37.9 °F 33% 29.54 in 10.0 mi West 20.7 mph 40.3 mph N/A   Clear
12:53 PM 66.9 °F 35.1 °F 31% 29.57 in 10.0 mi West 20.7 mph 33.4 mph N/A   Clear
1:53 PM 68.0 °F 32.0 °F 26% 29.58 in 10.0 mi West 23.0 mph 34.5 mph N/A   Clear
2:53 PM 69.1 °F 27.0 °F 21% 29.60 in 10.0 mi West 25.3 mph 36.8 mph N/A   Clear
3:53 PM 69.1 °F 24.1 °F 18% 29.64 in 10.0 mi West 21.9 mph 34.5 mph N/A   Clear
4:53 PM 64.9 °F 15.1 °F 15% 29.71 in 10.0 mi West 19.6 mph 35.7 mph N/A   Clear
5:53 PM 62.1 °F 18.0 °F 18% 29.77 in 10.0 mi West 18.4 mph 23.0 mph N/A   Clear
6:53 PM 59.0 °F 19.0 °F 21% 29.82 in 10.0 mi WNW 9.2 mph - N/A   Clear
7:53 PM 55.0 °F 21.9 °F 28% 29.86 in 10.0 mi NW 4.6 mph - N/A   Clear
8:53 PM 54.0 °F 24.1 °F 31% 29.90 in 10.0 mi NW 5.8 mph - N/A   Clear
9:53 PM 51.1 °F 30.0 °F 44% 29.93 in 10.0 mi West 5.8 mph - N/A   Clear
10:53 PM 48.0 °F 33.1 °F 56% 29.97 in 10.0 mi West 5.8 mph - N/A   Clear
11:53 PM 44.1 °F 33.1 °F 65% 30.01 in 10.0 mi Calm Calm - N/A   Clear